DECAYED

STARLINK-1934, 46792 (Decayed)

Orbit data source: Space-Track

STARLINK-1934, 46792 was a payload satellite owned by SpaceX/Seattle (US) in LEO that was launched on Sat, 24 Oct 2020 UTC via an FALCON 9 launch vehicle from the Air Force Eastern Test Range (AFETR). Payload-class satellites include a variety of spacecraft equipped with specific instruments for various scientific and technological missions. These include communications satellites like Starlink; space stations such as the ISS; scientific satellites like the Hubble; Earth observation satellites from companies like Planet Labs, Umbra, and HawkEye 360; GPS; miniature CubeSats for education and research; and military/defense satellites.

Not visible in the next 10 days
Identifier
46792, 2020-074BF
Orbit
Decayed
Country
Flag of USUS
Related business
Manufacturer
SpaceX/Seattle
Mission
Decayed Commercial Communications
Bus & Motor
STARLINK, Unknown motor
Mass
260 kg wet, ~248 kg dry
Launch date (UTC)
2020-10-24 (6 years ago)
Launch vehicle
FALCON 9
Launch site
Air Force Eastern Test Range (AFETR)
Object type
Payload
Rocket body
Debris
Shape & HBR
Box + 1 Pan, 10.1 m
Radar Cross Section
13.562 m², Large (>1 m²)

Expand to show TLE details & history
Last TLE update: 5 months ago

TLE from 5 months ago
0 STARLINK-1934
1 46792U 20074BF  26114.74934434  .03979396  12182-4  52066-3 0  9999
2 46792  53.0270  30.6355 0007119 209.0883 150.9765 16.34805339304795
Epoch: 2026-04-24T17:59Z
TLE epoch observation values (Epoch: 2026-04-24T17:59:03.350Z)
Latitude
-0.00008°
Longitude
-91.90612°
Altitude
184.666 km
Speed
7.794 km/s
True Right ascension
02h 02m 32s
True Declination
0° 00' 00"
Sunlit
Object was in daylight at epoch
Visualization orbit readout
Latitude
Unknown
Longitude
Unknown
Altitude
Unknown
Speed
Unknown
Apparent Right ascension
Unknown
Apparent Declination
Unknown
Sunlit
N/A
Visualization observer readout
Local Sidereal Time
12:18:38
Azimuth
Unknown
Elevation
Unknown
Doppler factor
Unknown
Orbital elements
Apogee altitude
184.616 km
Perigee altitude
175.279 km
Semi-major axis
6,558.085 km
Eccentricity
0.00071
Inclination
53.027°
RAAN
30.6355°
Arg. of periapsis
209.0883°
True anomaly
151.01605°
Mean anomaly
150.9765°
Eccentric anomaly
150.99628°
Mean motion
4.08675 °/min
Orbital period
88.09 mins
BSTAR
0.00052066
Loading maneuver chart data...
Computing Atmospheric mass density...

Documentation

Showing up to 5 results
|